Big Rapids, MI

3:54 AM EDT on October 19, 2019 (GMT -0400)
Roben-Hood

Weather History for KRQB - May, 2019

Change the Weather History Date:

Wednesday, May 29, 2019

  Actual Average Record
Temperature  
Mean Temperature 62 °F -  
Max Temperature 72 °F 73 °F 89 °F (1987)
Min Temperature 53 °F 49 °F 28 °F (2008)
Degree Days  
Heating Degree Days 2    
Growing Degree Days 12 (Base 50)    
Moisture  
Dew Point 53 °F    
Average Humidity 75    
Maximum Humidity 93    
Minimum Humidity 50    
Precipitation  
Precipitation 0.00 in - - ()
Sea Level Pressure  
Sea Level Pressure 29.75 in    
Wind  
Wind Speed 4 mph (West)    
Max Wind Speed 10 mph    
Max Gust Speed -    
Visibility 10 miles    
Events      
Averages and records for this station are not official NWS values.
T = Trace of Precipitation, MM = Missing Value Source: NWS Daily Summary

Daily Weather History Graph

Daily Weather History Graph

Search for Another Location

Airport or City:

Astronomy

May. 29, 2019 Rise Set
Actual Time 6:04 AM EDT 9:14 PM EDT
Civil Twilight 5:30 AM EDT 9:49 PM EDT
Nautical Twilight 4:45 AM EDT 10:34 PM EDT
Astronomical Twilight 3:51 AM EDT 11:28 PM EDT
Moon 3:56 AM EDT (5/29) 4:10 PM EDT (5/29)
Length of Visible Light 16h 18m
Length of Day
15h 09m
Waning Crescent, 23% of the Moon is Illuminated
May 29
Waning Crescent
Jun 3
New
Jun 10
First Quarter
Jun 17
Full
Jun 25
Last Quarter

Hourly Weather History & Observations

Time (EDT) Temp. Dew Point Humidity Pressure Visibility Wind Dir Wind Speed Gust Speed Precip Events Conditions
12:15 AM 57.2 °F 53.6 °F 88% 29.78 in 10.0 mi ESE 5.8 mph - N/A   Overcast
12:35 AM 57.2 °F 53.6 °F 88% 29.79 in 10.0 mi SE 3.5 mph - N/A   Overcast
12:55 AM 56.7 °F 53.4 °F 89% 29.79 in 10.0 mi ESE 4.6 mph - N/A   Overcast
12:56 AM 56.7 °F 53.4 °F 89% 29.79 in 10.0 mi ESE 4.6 mph - N/A   Overcast
1:15 AM 56.3 °F 53.1 °F 89% 29.80 in 10.0 mi SE 5.8 mph - N/A   Overcast
1:16 AM 56.3 °F 53.1 °F 89% 29.81 in 10.0 mi SE 5.8 mph - N/A   Overcast
1:35 AM 55.9 °F 52.9 °F 89% 29.80 in 10.0 mi ESE 6.9 mph - N/A   Overcast
1:55 AM 55.8 °F 52.7 °F 89% 29.78 in 10.0 mi ESE 6.9 mph - N/A   Overcast
1:56 AM 55.8 °F 52.7 °F 89% 29.78 in 10.0 mi ESE 5.8 mph - N/A   Overcast
2:15 AM 55.4 °F 52.3 °F 89% 29.80 in 10.0 mi SSE 5.8 mph - N/A   Overcast
2:16 AM 55.4 °F 52.3 °F 89% 29.80 in 10.0 mi SSE 5.8 mph - N/A   Overcast
2:35 AM 55.4 °F 52.7 °F 91% 29.82 in 10.0 mi South 5.8 mph - N/A   Overcast
2:36 AM 55.4 °F 52.7 °F 91% 29.82 in 10.0 mi South 5.8 mph - N/A   Overcast
2:55 AM 55.4 °F 52.2 °F 89% 29.80 in 10.0 mi ESE 3.5 mph - N/A   Overcast
3:15 AM 54.7 °F 52.0 °F 91% 29.77 in 10.0 mi East 4.6 mph - N/A   Overcast
3:35 AM 54.1 °F 51.8 °F 92% 29.73 in 10.0 mi East 5.8 mph - N/A   Overcast
3:36 AM 54.1 °F 51.8 °F 92% 29.73 in 10.0 mi East 5.8 mph - N/A   Overcast
3:55 AM 53.8 °F 51.6 °F 92% 29.72 in 10.0 mi East 5.8 mph - N/A   Mostly Cloudy
4:15 AM 53.6 °F 51.4 °F 92% 29.72 in 10.0 mi East 8.1 mph - N/A   Overcast
4:35 AM 53.8 °F 51.4 °F 92% 29.73 in 10.0 mi Calm Calm - N/A   Overcast
4:36 AM 53.8 °F 51.4 °F 92% 29.73 in 10.0 mi Calm Calm - N/A   Overcast
4:55 AM 53.4 °F 50.9 °F 91% 29.72 in 10.0 mi Calm Calm - N/A   Overcast
4:56 AM 53.4 °F 50.9 °F 91% 29.72 in 10.0 mi NNE 3.5 mph - N/A   Overcast
5:15 AM 53.6 °F 51.1 °F 91% 29.73 in 10.0 mi Calm Calm - N/A   Scattered Clouds
5:16 AM 53.6 °F 51.3 °F 92% 29.73 in 10.0 mi Calm Calm - N/A   Scattered Clouds
5:35 AM 53.1 °F 51.1 °F 93% 29.75 in 10.0 mi Calm Calm - N/A   Mostly Cloudy
5:55 AM 53.6 °F 51.4 °F 92% 29.74 in 10.0 mi Calm Calm - N/A   Overcast
5:56 AM 53.6 °F 51.4 °F 92% 29.74 in 10.0 mi Calm Calm - N/A   Overcast
6:15 AM 53.8 °F 51.8 °F 93% 29.76 in 10.0 mi Calm Calm - N/A   Overcast
6:16 AM 53.8 °F 51.8 °F 93% 29.76 in 10.0 mi ESE 3.5 mph - N/A   Overcast
6:35 AM 53.8 °F 51.8 °F 93% 29.77 in 10.0 mi Calm Calm - N/A   Overcast
6:55 AM 54.0 °F 51.8 °F 92% 29.77 in 10.0 mi Calm Calm - N/A   Overcast
6:56 AM 54.0 °F 51.8 °F 92% 29.77 in 10.0 mi Calm Calm - N/A   Overcast
7:15 AM 53.8 °F 51.8 °F 93% 29.78 in 10.0 mi Calm Calm - N/A   Overcast
7:16 AM 53.8 °F 51.8 °F 93% 29.78 in 10.0 mi Calm Calm - N/A   Overcast
7:35 AM 54.1 °F 52.2 °F 93% 29.77 in 10.0 mi ESE 4.6 mph - N/A   Overcast
7:36 AM 54.1 °F 52.2 °F 93% 29.77 in 10.0 mi ESE 5.8 mph - N/A   Overcast
7:55 AM 54.5 °F 52.3 °F 92% 29.75 in 10.0 mi East 6.9 mph - N/A   Overcast
8:15 AM 54.7 °F 52.5 °F 92% 29.75 in 10.0 mi ENE 4.6 mph - N/A   Mostly Cloudy
8:35 AM 55.2 °F 52.3 °F 90% 29.75 in 10.0 mi ENE 5.8 mph - N/A   Overcast
8:36 AM 55.0 °F 52.3 °F 91% 29.74 in 10.0 mi ENE 5.8 mph - N/A   Overcast
8:55 AM 55.4 °F 52.5 °F 90% 29.74 in 10.0 mi East 6.9 mph - N/A   Overcast
8:56 AM 55.6 °F 52.5 °F 89% 29.73 in 10.0 mi ENE 6.9 mph - N/A   Overcast
9:15 AM 55.4 °F 52.2 °F 89% 29.73 in 10.0 mi ESE 8.1 mph - N/A   Overcast
9:16 AM 55.6 °F 52.3 °F 89% 29.73 in 10.0 mi ESE 8.1 mph - N/A   Overcast
9:35 AM 56.7 °F 52.3 °F 85% 29.72 in 10.0 mi ESE 4.6 mph - N/A   Overcast
9:55 AM 57.4 °F 52.7 °F 84% 29.73 in 10.0 mi Calm Calm - N/A   Overcast
9:56 AM 57.4 °F 52.5 °F 84% 29.73 in 10.0 mi Calm Calm - N/A   Overcast
10:15 AM 59.2 °F 53.1 °F 80% 29.74 in 10.0 mi Calm Calm - N/A   Mostly Cloudy
10:35 AM 60.8 °F 53.6 °F 77% 29.75 in 10.0 mi North 3.5 mph - N/A   Mostly Cloudy
10:36 AM 60.8 °F 53.6 °F 77% 29.75 in 10.0 mi Calm Calm - N/A   Mostly Cloudy
10:55 AM 61.0 °F 53.1 °F 75% 29.75 in 10.0 mi Calm Calm - N/A   Mostly Cloudy
11:15 AM 62.1 °F 52.0 °F 70% 29.77 in 10.0 mi Calm Calm - N/A   Mostly Cloudy
11:16 AM 61.9 °F 52.0 °F 70% 29.77 in 10.0 mi Calm Calm - N/A   Mostly Cloudy
11:35 AM 62.6 °F 52.3 °F 69% 29.77 in 10.0 mi Calm Calm - N/A   Overcast
11:55 AM 63.3 °F 52.3 °F 67% 29.77 in 10.0 mi Calm Calm - N/A   Overcast
12:15 PM 64.4 °F 53.1 °F 67% 29.77 in 10.0 mi Calm Calm - N/A   Overcast
12:16 PM 64.4 °F 52.9 °F 66% 29.77 in 10.0 mi Calm Calm - N/A   Overcast
12:35 PM 64.8 °F 52.7 °F 65% 29.77 in 10.0 mi Calm Calm - N/A   Overcast
12:36 PM 64.9 °F 52.7 °F 64% 29.77 in 10.0 mi Calm Calm - N/A   Overcast
12:55 PM 65.5 °F 53.1 °F 64% 29.77 in 10.0 mi SE 3.5 mph - N/A   Overcast
12:56 PM 65.3 °F 52.9 °F 64% 29.77 in 10.0 mi Calm Calm - N/A   Overcast
1:15 PM 66.7 °F 52.9 °F 61% 29.76 in 10.0 mi Calm Calm - N/A   Overcast
1:16 PM 66.7 °F 52.5 °F 60% 29.76 in 10.0 mi Calm Calm - N/A   Overcast
1:35 PM 67.5 °F 53.2 °F 60% 29.75 in 10.0 mi NW 6.9 mph - N/A   Overcast
1:36 PM 67.5 °F 53.4 °F 61% 29.75 in 10.0 mi NW 8.1 mph - N/A   Overcast
1:55 PM 67.5 °F 52.7 °F 59% 29.75 in 10.0 mi WNW 4.6 mph - N/A   Overcast
2:15 PM 67.3 °F 52.3 °F 59% 29.75 in 10.0 mi NW 4.6 mph - N/A   Overcast
2:35 PM 68.4 °F 52.3 °F 57% 29.75 in 10.0 mi NNW 5.8 mph - N/A   Overcast
2:36 PM 68.5 °F 52.5 °F 57% 29.75 in 10.0 mi NW 4.6 mph - N/A   Overcast
2:55 PM 67.8 °F 51.3 °F 55% 29.74 in 10.0 mi West 3.5 mph - N/A   Mostly Cloudy
3:15 PM 70.0 °F 52.7 °F 54% 29.74 in 10.0 mi West 3.5 mph - N/A   Mostly Cloudy
3:35 PM 70.0 °F 52.7 °F 54% 29.74 in 10.0 mi WNW 3.5 mph - N/A   Overcast
3:36 PM 70.0 °F 52.7 °F 54% 29.74 in 10.0 mi West 4.6 mph - N/A   Overcast
3:55 PM 69.3 °F 53.4 °F 57% 29.73 in 10.0 mi NNW 4.6 mph - N/A   Overcast
3:56 PM 69.3 °F 53.6 °F 57% 29.73 in 10.0 mi NNW 4.6 mph - N/A   Overcast
4:15 PM 71.8 °F 52.5 °F 51% 29.73 in 10.0 mi NW 5.8 mph - N/A   Mostly Cloudy
4:16 PM 71.8 °F 52.7 °F 51% 29.73 in 10.0 mi NW 5.8 mph - N/A   Mostly Cloudy
4:35 PM 71.2 °F 52.5 °F 52% 29.73 in 10.0 mi Calm Calm - N/A   Scattered Clouds
4:55 PM 70.7 °F 52.9 °F 53% 29.74 in 10.0 mi West 5.8 mph - N/A   Mostly Cloudy
4:56 PM 70.7 °F 52.9 °F 53% 29.74 in 10.0 mi West 4.6 mph - N/A   Mostly Cloudy
5:15 PM 72.5 °F 52.9 °F 50% 29.73 in 10.0 mi West 5.8 mph - N/A   Mostly Cloudy
5:16 PM 72.1 °F 52.9 °F 51% 29.73 in 10.0 mi West 5.8 mph - N/A   Mostly Cloudy
5:35 PM 72.0 °F 52.5 °F 50% 29.73 in 10.0 mi West 3.5 mph - N/A   Mostly Cloudy
5:55 PM 72.0 °F 52.9 °F 51% 29.73 in 10.0 mi WNW 10.4 mph - N/A   Mostly Cloudy
5:56 PM 71.8 °F 52.9 °F 51% 29.73 in 10.0 mi NW 9.2 mph - N/A   Mostly Cloudy
6:15 PM 72.0 °F 53.8 °F 53% 29.73 in 10.0 mi West 8.1 mph - N/A   Scattered Clouds
6:16 PM 72.0 °F 53.8 °F 53% 29.74 in 10.0 mi West 9.2 mph - N/A   Scattered Clouds
6:35 PM 72.1 °F 53.2 °F 51% 29.74 in 10.0 mi West 6.9 mph - N/A   Mostly Cloudy
6:55 PM 71.8 °F 54.1 °F 54% 29.74 in 10.0 mi West 9.2 mph - N/A   Scattered Clouds
7:15 PM 71.2 °F 54.7 °F 56% 29.73 in 10.0 mi West 8.1 mph - N/A   Clear
7:35 PM 69.8 °F 54.7 °F 59% 29.72 in 10.0 mi West 5.8 mph - N/A   Clear
7:36 PM 69.8 °F 54.7 °F 59% 29.72 in 10.0 mi West 5.8 mph - N/A   Clear
7:55 PM 69.3 °F 55.0 °F 60% 29.72 in 10.0 mi West 6.9 mph - N/A   Clear
8:15 PM 68.4 °F 54.7 °F 62% 29.72 in 10.0 mi West 5.8 mph - N/A   Clear
8:35 PM 67.1 °F 54.3 °F 63% 29.73 in 10.0 mi West 4.6 mph - N/A   Clear
8:36 PM 67.1 °F 54.3 °F 63% 29.73 in 10.0 mi West 4.6 mph - N/A   Clear
8:55 PM 65.8 °F 53.8 °F 65% 29.73 in 10.0 mi WNW 5.8 mph - N/A   Clear
8:56 PM 65.7 °F 53.6 °F 65% 29.73 in 10.0 mi WNW 5.8 mph - N/A   Clear
9:15 PM 64.4 °F 53.6 °F 68% 29.74 in 10.0 mi WNW 4.6 mph - N/A   Clear
9:35 PM 63.7 °F 52.7 °F 67% 29.75 in 10.0 mi WNW 3.5 mph - N/A   Clear
9:55 PM 62.6 °F 52.9 °F 70% 29.75 in 10.0 mi West 3.5 mph - N/A   Clear
9:56 PM 62.6 °F 52.9 °F 70% 29.75 in 10.0 mi WSW 3.5 mph - N/A   Clear
10:15 PM 60.8 °F 53.1 °F 76% 29.76 in 10.0 mi WSW 5.8 mph - N/A   Clear
10:16 PM 60.8 °F 53.1 °F 76% 29.76 in 10.0 mi WSW 5.8 mph - N/A   Clear
10:35 PM 60.1 °F 53.1 °F 78% 29.77 in 10.0 mi West 3.5 mph - N/A   Clear
10:55 PM 59.7 °F 52.7 °F 78% 29.77 in 10.0 mi Calm Calm - N/A   Clear
10:56 PM 59.5 °F 52.7 °F 78% 29.77 in 10.0 mi Calm Calm - N/A   Clear
11:15 PM 58.1 °F 52.5 °F 82% 29.77 in 10.0 mi Calm Calm - N/A   Clear
11:16 PM 58.1 °F 52.7 °F 82% 29.77 in 10.0 mi Calm Calm - N/A   Clear
11:35 PM 58.6 °F 53.1 °F 82% 29.77 in 10.0 mi Calm Calm - N/A   Clear
11:55 PM 57.0 °F 52.5 °F 85% 29.78 in 10.0 mi Calm Calm - N/A   Clear